Regional Weather Roundup
Issued by NWS

Home | Current Version | Previous Version | Graphics & Text | Print | Product List | Glossary On
Versions: 1 2 3 4 5 6 7 8 9 10 11 12 13 14 15 16 17 18 19 20 21 22 23 24 25 26 27 28 29 30 31 32 33 34 35 36 37 38 39 40 41 42 43 44 45 46 47 48 49 50
781
ASUS43 KLSX 260159
RWRMO

WEATHER SUMMARY FOR MISSOURI
NATIONAL WEATHER SERVICE SPRINGFIELD MO
900 PM CDT TUE APR 25 2017

NOTE: "FAIR" INDICATES FEW OR NO CLOUDS BELOW 12,000 FEET WITH NO
       SIGNIFICANT WEATHER AND/OR OBSTRUCTIONS TO VISIBILITY.
       CURRENT SKY AND/OR WEATHER CONDITIONS ARE NOT AVAILABLE FOR
       CHILLICOTHE AND FARMINGTON.

MOZ001>031-035>038-043-044-053-054-260300-
...NORTHERN AND WESTERN MISSOURI...

CITY           SKY/WX    TMP DP  RH WIND       PRES   REMARKS
KANSAS CTY INT CLOUDY    62  51  67 NW10      29.46R
KANSAS C DTWN  CLOUDY    69  56  62 NW10      29.44R
LEE`S SUMMIT   CLOUDY    69  59  70 CALM      29.45R
ST JOSEPH      LGT RAIN  57  48  72 N15       29.49R
CHILLICOTHE      N/A     66  57  72 CALM      29.44S
KIRKSVILLE     CLOUDY    69  54  58 NW5       29.44S

$$
MOZ066>068-077>081-088>096-101>105-260300-
...SOUTHWEST MISSOURI...

CITY           SKY/WX    TMP DP  RH WIND       PRES   REMARKS
SPRINGFIELD    CLOUDY    73  61  65 S6        29.45S
JOPLIN         MOCLDY    72  61  68 S12       29.45R
BRANSON        CLOUDY    72  59  64 S9        29.50S

$$
MOZ032>034-039>042-045>050-055>058-069>072-260300-
...CENTRAL MISSOURI...

CITY           SKY/WX    TMP DP  RH WIND       PRES   REMARKS
COLUMBIA       CLOUDY    72  55  55 S9        29.45S
JEFFERSON CITY PTCLDY    73  55  53 SE8       29.45R
ROLLA          MOCLDY    70  52  52 S13       29.49R
SEDALIA        MOCLDY    72  60  66 W5        29.46R
OSAGE BEACH    PTCLDY    73  56  54 S9        29.46S

$$
MOZ051-052-059>065-260300-
...EAST CENTRAL MISSOURI...

CITY           SKY/WX    TMP DP  RH WIND       PRES   REMARKS
ST LOUIS INTL  CLOUDY    76  49  38 S13       29.52R
SPIRIT OF STL  CLOUDY    74  51  44 S6        29.50R
ST CHARLES     MOCLDY    74  50  42 S13G21    29.50R

$$
MOZ072>076-082>087-097>100-106>115-260300-
...SOUTH CENTRAL AND SOUTHEAST MISSOURI...

CITY           SKY/WX    TMP DP  RH WIND       PRES   REMARKS
CAPE GIRARDEAU CLEAR     69  52  54 S5        29.57R
FARMINGTON     CLEAR     69  52  54 S8        29.56R
POPLAR BLUFF   CLEAR     72  53  51 S9        29.56R
WEST PLAINS    MOCLDY    70  52  52 S9        29.54S

$$




USA.gov is the U.S. government's official web portal to all federal, state and local government web resources and services.